JLY1422 SBSP-SBRJ

Flight info

Callsign JLY1422
Flight time 0h 38m
Altitude 29000
Route NIBRU UZ171 KEVUN
Aircraft A319/M-SDE3FGHIRWY/LB1

Departure

Time 2026-05-03 23:03
Airport Congonhas–Deputado Freitas Nobre Airport (SBSP)

Arrival

Time 2026-05-03 23:41
Airport Santos Dumont Airport (SBRJ)
Time Latitude Longitude Altitude Speed Heading
2026-05-03 22:38 -23.62486 -46.65986 2612 ft 0 kts 237°
2026-05-03 22:51 -23.62485 -46.65986 2612 ft 1 kts 237°
2026-05-03 22:51 -23.62477 -46.65973 2612 ft 2 kts 237°
2026-05-03 22:52 -23.62473 -46.65958 2613 ft 2 kts 270°
2026-05-03 22:52 -23.62475 -46.65942 2613 ft 2 kts 298°
2026-05-03 22:52 -23.62484 -46.65931 2613 ft 0 kts 323°
2026-05-03 22:52 -23.62487 -46.65928 2614 ft 1 kts 332°
2026-05-03 22:53 -23.62491 -46.65926 2614 ft 0 kts 328°
2026-05-03 22:56 -23.62456 -46.65942 2613 ft 10 kts 346°
2026-05-03 22:56 -23.62337 -46.65985 2609 ft 16 kts 331°
2026-05-03 22:56 -23.62233 -46.66049 2606 ft 17 kts 336°
2026-05-03 22:57 -23.62130 -46.66116 2601 ft 11 kts 327°
2026-05-03 22:57 -23.62123 -46.66121 2601 ft 0 kts 326°
2026-05-03 22:58 -23.62101 -46.66136 2600 ft 7 kts 335°
2026-05-03 22:58 -23.62039 -46.66123 2599 ft 11 kts 50°
2026-05-03 22:58 -23.62048 -46.66077 2599 ft 0 kts 142°
2026-05-03 23:02 -23.62061 -46.66065 2600 ft 19 kts 143°
2026-05-03 23:02 -23.62419 -46.65818 2614 ft 98 kts 147°
2026-05-03 23:02 -23.63180 -46.65292 2685 ft 153 kts 147°
2026-05-03 23:02 -23.63778 -46.64880 3129 ft 154 kts 147°
2026-05-03 23:03 -23.64902 -46.63897 3913 ft 168 kts 126°
2026-05-03 23:03 -23.65320 -46.63160 4270 ft 179 kts 118°
2026-05-03 23:03 -23.65926 -46.61904 4814 ft 197 kts 116°
2026-05-03 23:03 -23.66824 -46.60006 5540 ft 225 kts 116°
2026-05-03 23:04 -23.67573 -46.58454 6163 ft 244 kts 116°
2026-05-03 23:04 -23.68401 -46.56752 6790 ft 263 kts 116°
2026-05-03 23:04 -23.69279 -46.54958 7485 ft 278 kts 116°
2026-05-03 23:04 -23.70198 -46.53087 8355 ft 285 kts 117°
2026-05-03 23:05 -23.71141 -46.51165 9152 ft 292 kts 116°
2026-05-03 23:05 -23.71814 -46.49066 9668 ft 297 kts 98°
2026-05-03 23:05 -23.71835 -46.46814 9933 ft 300 kts 83°
2026-05-03 23:05 -23.71521 -46.44561 9947 ft 300 kts 79°
2026-05-03 23:06 -23.71286 -46.43086 9945 ft 300 kts 79°
2026-05-03 23:06 -23.70811 -46.40085 10051 ft 306 kts 80°
2026-05-03 23:06 -23.70581 -46.38570 10452 ft 311 kts 80°
2026-05-03 23:06 -23.70227 -46.36191 11190 ft 323 kts 81°
2026-05-03 23:07 -23.69866 -46.33721 11705 ft 341 kts 80°
2026-05-03 23:07 -23.69368 -46.30256 12634 ft 353 kts 81°
2026-05-03 23:07 -23.68989 -46.27611 13396 ft 359 kts 81°
2026-05-03 23:07 -23.68599 -46.24879 14122 ft 365 kts 81°
2026-05-03 23:08 -23.68211 -46.22159 14822 ft 371 kts 81°
2026-05-03 23:08 -23.67947 -46.20303 15297 ft 374 kts 81°
2026-05-03 23:08 -23.67543 -46.17489 15975 ft 379 kts 81°
2026-05-03 23:08 -23.67001 -46.13710 16827 ft 386 kts 81°
2026-05-03 23:09 -23.66720 -46.11754 17250 ft 390 kts 81°
2026-05-03 23:09 -23.66157 -46.07841 18092 ft 396 kts 81°
2026-05-03 23:09 -23.65873 -46.05865 18487 ft 400 kts 81°
2026-05-03 23:09 -23.65438 -46.02856 19064 ft 406 kts 82°
2026-05-03 23:10 -23.64854 -45.98805 19859 ft 413 kts 82°
2026-05-03 23:10 -23.64556 -45.96741 20271 ft 416 kts 82°
2026-05-03 23:10 -23.63951 -45.92541 21029 ft 424 kts 82°
2026-05-03 23:10 -23.63490 -45.89352 21601 ft 430 kts 82°
2026-05-03 23:11 -23.63032 -45.86178 22333 ft 430 kts 82°
2026-05-03 23:11 -23.62720 -45.84028 22847 ft 430 kts 82°
2026-05-03 23:11 -23.62099 -45.79726 23772 ft 431 kts 82°
2026-05-03 23:11 -23.61641 -45.76539 24439 ft 432 kts 81°
2026-05-03 23:12 -23.61174 -45.73311 25097 ft 433 kts 81°
2026-05-03 23:12 -23.60705 -45.70075 25746 ft 434 kts 80°
2026-05-03 23:12 -23.60228 -45.66811 26400 ft 435 kts 80°
2026-05-03 23:12 -23.59754 -45.63571 27053 ft 435 kts 79°
2026-05-03 23:13 -23.59281 -45.60337 27686 ft 436 kts 79°
2026-05-03 23:13 -23.58959 -45.58163 28047 ft 438 kts 79°
2026-05-03 23:13 -23.58313 -45.53769 28704 ft 443 kts 78°
2026-05-03 23:13 -23.57822 -45.50446 29108 ft 449 kts 78°
2026-05-03 23:14 -23.57309 -45.47086 29230 ft 450 kts 76°
2026-05-03 23:14 -23.55964 -45.40452 29233 ft 450 kts 73°
2026-05-03 23:15 -23.54782 -45.34965 29231 ft 450 kts 73°
2026-05-03 23:15 -23.53125 -45.27210 29227 ft 451 kts 73°
2026-05-03 23:16 -23.51710 -45.20557 29226 ft 451 kts 73°
2026-05-03 23:16 -23.50993 -45.17209 29049 ft 453 kts 73°
2026-05-03 23:16 -23.50521 -45.14995 28725 ft 454 kts 73°
2026-05-03 23:16 -23.49576 -45.10561 28063 ft 453 kts 74°
2026-05-03 23:17 -23.48862 -45.07230 27551 ft 453 kts 75°
2026-05-03 23:17 -23.48154 -45.03920 27025 ft 453 kts 75°
2026-05-03 23:17 -23.47438 -45.00563 26489 ft 453 kts 75°
2026-05-03 23:17 -23.46724 -44.97242 25938 ft 453 kts 75°
2026-05-03 23:18 -23.46255 -44.95054 25585 ft 452 kts 76°
2026-05-03 23:18 -23.45519 -44.91701 25024 ft 451 kts 76°
2026-05-03 23:18 -23.44540 -44.87319 24302 ft 450 kts 76°
2026-05-03 23:18 -23.43805 -44.84028 23734 ft 450 kts 76°
2026-05-03 23:19 -23.43068 -44.80724 23158 ft 449 kts 77°
2026-05-03 23:19 -23.42337 -44.77441 22574 ft 449 kts 77°
2026-05-03 23:19 -23.41846 -44.75234 22179 ft 448 kts 77°
2026-05-03 23:19 -23.40877 -44.70863 21402 ft 446 kts 77°
2026-05-03 23:20 -23.40154 -44.67604 20864 ft 442 kts 77°
2026-05-03 23:20 -23.39435 -44.64379 20433 ft 436 kts 76°
2026-05-03 23:20 -23.38734 -44.61238 19996 ft 430 kts 76°
2026-05-03 23:20 -23.38024 -44.58065 19537 ft 425 kts 76°
2026-05-03 23:21 -23.37329 -44.54963 19091 ft 421 kts 76°
2026-05-03 23:21 -23.36875 -44.52940 18789 ft 418 kts 76°
2026-05-03 23:21 -23.36190 -44.49883 18335 ft 414 kts 76°
2026-05-03 23:21 -23.35291 -44.45882 17738 ft 408 kts 76°
2026-05-03 23:22 -23.33555 -44.40075 16852 ft 400 kts 65°
2026-05-03 23:22 -23.32405 -44.37324 16397 ft 396 kts 64°
2026-05-03 23:22 -23.31231 -44.34623 15946 ft 393 kts 63°
2026-05-03 23:23 -23.30082 -44.31988 15500 ft 389 kts 63°
2026-05-03 23:23 -23.29316 -44.30225 15195 ft 387 kts 63°
2026-05-03 23:23 -23.28171 -44.27581 14736 ft 383 kts 63°
2026-05-03 23:23 -23.26671 -44.24107 14123 ft 378 kts 64°
2026-05-03 23:24 -23.25559 -44.21525 13661 ft 374 kts 64°
2026-05-03 23:24 -23.24473 -44.19003 13208 ft 370 kts 64°
2026-05-03 23:24 -23.23383 -44.16468 12743 ft 366 kts 64°
2026-05-03 23:24 -23.22671 -44.14815 12436 ft 363 kts 64°
2026-05-03 23:25 -23.21267 -44.11554 11826 ft 358 kts 64°
2026-05-03 23:25 -23.20211 -44.09108 11360 ft 354 kts 64°
2026-05-03 23:25 -23.19156 -44.06712 11066 ft 343 kts 63°
2026-05-03 23:25 -23.18123 -44.04469 11090 ft 334 kts 62°
2026-05-03 23:26 -23.17412 -44.02937 11108 ft 334 kts 62°
2026-05-03 23:26 -23.16374 -44.00698 11133 ft 334 kts 62°
2026-05-03 23:26 -23.15009 -43.97668 11156 ft 335 kts 64°
2026-05-03 23:26 -23.14039 -43.95398 11182 ft 334 kts 64°
2026-05-03 23:27 -23.13060 -43.93089 11191 ft 334 kts 64°
2026-05-03 23:27 -23.12096 -43.90816 11189 ft 333 kts 64°
2026-05-03 23:27 -23.11452 -43.89301 11152 ft 334 kts 64°
2026-05-03 23:27 -23.10163 -43.86282 10577 ft 331 kts 64°
2026-05-03 23:28 -23.09536 -43.84815 10399 ft 325 kts 64°
2026-05-03 23:28 -23.08296 -43.81913 10195 ft 308 kts 64°
2026-05-03 23:28 -23.07703 -43.80527 10110 ft 300 kts 64°
2026-05-03 23:28 -23.06540 -43.77812 9619 ft 297 kts 64°
2026-05-03 23:29 -23.05967 -43.76477 9372 ft 295 kts 64°
2026-05-03 23:29 -23.04808 -43.73780 8889 ft 292 kts 64°
2026-05-03 23:29 -23.04246 -43.72474 8646 ft 291 kts 64°
2026-05-03 23:29 -23.03116 -43.69845 8181 ft 287 kts 64°
2026-05-03 23:30 -23.02270 -43.67899 7915 ft 282 kts 64°
2026-05-03 23:30 -23.01438 -43.65999 7662 ft 276 kts 64°
2026-05-03 23:30 -23.00896 -43.64763 7495 ft 273 kts 64°
2026-05-03 23:30 -23.00085 -43.62911 7245 ft 268 kts 65°
2026-05-03 23:31 -22.99017 -43.60478 7015 ft 266 kts 65°
2026-05-03 23:31 -22.98225 -43.58677 6863 ft 265 kts 65°
2026-05-03 23:31 -22.97428 -43.56865 6707 ft 261 kts 65°
2026-05-03 23:31 -22.96667 -43.55135 6557 ft 253 kts 65°
2026-05-03 23:32 -22.95925 -43.53450 6410 ft 245 kts 65°
2026-05-03 23:32 -22.95204 -43.51812 6269 ft 237 kts 65°
2026-05-03 23:32 -22.94730 -43.50733 6160 ft 232 kts 66°
2026-05-03 23:32 -22.93835 -43.48628 5760 ft 233 kts 66°
2026-05-03 23:33 -22.93155 -43.47016 5456 ft 234 kts 66°
2026-05-03 23:33 -22.92479 -43.45410 5152 ft 234 kts 66°
2026-05-03 23:33 -22.91808 -43.43824 4853 ft 234 kts 67°
2026-05-03 23:33 -22.91133 -43.42229 4732 ft 225 kts 67°
2026-05-03 23:34 -22.90701 -43.41212 4581 ft 223 kts 67°
2026-05-03 23:34 -22.90049 -43.39674 4296 ft 224 kts 67°
2026-05-03 23:34 -22.89193 -43.37657 3930 ft 224 kts 67°
2026-05-03 23:34 -22.88555 -43.36123 3652 ft 223 kts 71°
2026-05-03 23:35 -22.88249 -43.34502 3424 ft 217 kts 90°
2026-05-03 23:35 -22.88278 -43.32907 3307 ft 209 kts 94°
2026-05-03 23:35 -22.88352 -43.31370 3183 ft 201 kts 95°
2026-05-03 23:35 -22.88419 -43.29901 3127 ft 187 kts 94°
2026-05-03 23:36 -22.88458 -43.28978 3018 ft 181 kts 94°
2026-05-03 23:36 -22.88526 -43.27229 2834 ft 168 kts 94°
2026-05-03 23:36 -22.88685 -43.26029 2717 ft 152 kts 108°
2026-05-03 23:36 -22.89038 -43.25008 2491 ft 141 kts 113°
2026-05-03 23:37 -22.89416 -43.24030 2311 ft 140 kts 114°
2026-05-03 23:37 -22.89664 -43.23392 2200 ft 140 kts 114°
2026-05-03 23:37 -22.90162 -43.22091 1966 ft 140 kts 113°
2026-05-03 23:37 -22.90554 -43.21150 1788 ft 132 kts 122°
2026-05-03 23:38 -22.91117 -43.20379 1623 ft 129 kts 137°
2026-05-03 23:38 -22.91846 -43.19806 1470 ft 129 kts 152°
2026-05-03 23:38 -22.92683 -43.19463 1327 ft 129 kts 167°
2026-05-03 23:38 -22.93564 -43.19284 1169 ft 129 kts 164°
2026-05-03 23:39 -22.94349 -43.18829 982 ft 128 kts 135°
2026-05-03 23:39 -22.94679 -43.18299 870 ft 128 kts 111°
2026-05-03 23:39 -22.94652 -43.17042 649 ft 129 kts 65°
2026-05-03 23:39 -22.94070 -43.16325 489 ft 129 kts 30°
2026-05-03 23:40 -22.93214 -43.16069 331 ft 128 kts 357°
2026-05-03 23:40 -22.92329 -43.16188 169 ft 127 kts 351°
2026-05-03 23:40 -22.91458 -43.16266 36 ft 125 kts 356°
2026-05-03 23:40 -22.90956 -43.16298 26 ft 81 kts 355°
2026-05-03 23:41 -22.90573 -43.16323 27 ft 24 kts 356°
2026-05-03 23:41 -22.90482 -43.16372 28 ft 11 kts 279°
2026-05-03 23:41 -22.90487 -43.16465 28 ft 12 kts 265°
2026-05-03 23:41 -22.90501 -43.16552 28 ft 9 kts 229°
2026-05-03 23:42 -22.90574 -43.16562 28 ft 11 kts 177°
2026-05-03 23:42 -22.90632 -43.16559 28 ft 13 kts 176°
2026-05-03 23:42 -22.90727 -43.16560 28 ft 4 kts 235°
2026-05-03 23:42 -22.90736 -43.16583 28 ft 3 kts 253°
2026-05-03 23:43 -22.90739 -43.16620 28 ft 5 kts 265°
2026-05-03 23:43 -22.90740 -43.16627 28 ft 0 kts 266°